[[{"header":{"parameterUnit":"m.s-1","parameterCategory":1,"la1":30.2991,"la2":30.254,"lo1":-89.0895,"lo2":-89.0444,"dy":0.0017,"dx":0.0017,"nx":28,"ny":28,"refTime":"2025-04-15T21:00:00:Z","depth":0,"parameterNumber":2,"parameterNumberName":"U-component_of_WINDS"},"data":[0,0,0,0,0,0,0,0,0,0,0,0,0,0,0,0,0,0,0,0,0,0,0,0,0,0,0,0,0,0,0,0,0,0,0,0,0,0,0,0,0,0,0,0,0,0,0,0,0,0,0,0,0,0,0,0,0,0,-3.2593,-3.2592,0,-3.2537,-3.2536,-3.2535,-3.2379,-3.2376,-3.2372,-3.2369,-3.2316,-3.2317,-3.2319,0,0,0,0,0,0,0,0,0,0,0,0,0,-3.257,-3.2572,-3.2593,-3.2592,-3.2591,-3.2537,-3.2536,-3.2535,-3.238,-3.2376,-3.2372,-3.2368,-3.2315,-3.2317,-3.2319,0,0,0,0,0,0,0,0,0,0,0,0,0,-3.2554,-3.2572,-3.2593,-3.2507,-3.2499,-3.2537,-3.2536,-3.2535,-3.2381,-3.2376,-3.2371,-3.2366,-3.2315,-3.2317,-3.232,-3.2437,0,0,-3.2328,-3.2329,0,0,0,0,0,0,0,0,-3.2555,-3.2555,-3.252,-3.2513,-3.2504,-3.246,-3.2508,-3.2502,-3.2382,-3.2426,-3.2369,-3.2363,-3.2368,-3.2366,-3.2367,-3.2435,-3.2432,-3.2328,-3.2329,-3.233,-3.2331,0,0,0,0,0,0,0,-3.2556,-3.2557,-3.257,-3.252,-3.251,-3.2473,-3.2465,-3.2506,-3.2426,-3.2422,-3.241,-3.2405,-3.2363,-3.2365,-3.2364,-3.2432,-3.2328,-3.233,-3.2332,-3.2333,-3.2596,-3.2601,0,0,0,0,0,0,-3.2569,-3.2559,-3.2572,-3.2569,-3.2517,-3.2478,-3.2469,-3.2479,-3.2425,-3.2412,-3.241,-3.2398,-3.2363,-3.2361,-3.2362,-3.2497,-3.233,-3.2333,-3.2334,-3.259,-3.2597,-3.2603,0,0,0,0,0,0,-3.2569,-3.2572,-3.2575,-3.2561,-3.2558,-3.2483,-3.2496,-3.2481,-3.2482,-3.2416,-3.2402,-3.2426,-3.2359,-3.2358,-3.242,-3.2493,-3.2334,-3.2336,-3.2584,-3.2593,-3.26,-3.2769,0,0,0,0,0,0,-3.2569,-3.2573,-3.2615,-3.2563,-3.2559,-3.2633,-3.2501,-3.2483,-3.2487,-3.2471,-3.2428,-3.2416,-3.2355,-3.2417,-3.2423,-3.2494,-3.2338,-3.2577,-3.2588,-3.2597,-3.2756,-3.2781,-3.2803,0,0,0,0,0,-3.2569,-3.2666,-3.2618,-3.2621,-3.2611,-3.2637,-3.2635,-3.2562,-3.2493,-3.2536,-3.2494,-3.2417,-3.2484,-3.2424,-3.2429,-3.2503,-3.2572,-3.2585,-3.2597,-3.2746,-3.2776,-3.2803,0,0,0,0,0,0,-3.273,-3.2657,-3.2604,-3.2686,-3.2669,-3.2611,-3.2662,-3.2596,-3.2599,-3.2585,-3.2495,-3.2486,-3.2561,-3.2538,-3.2473,-3.2615,-3.2516,-3.253,-3.2627,-3.2656,-3.2679,-3.2683,-3.2341,0,0,0,0,0,-3.2774,-3.28,-3.2736,-3.2815,-3.2809,-3.2738,-3.2746,-3.2691,-3.267,-3.2663,-3.2625,-3.2609,-3.2626,-3.264,-3.2652,-3.2752,-3.2742,-3.2805,-3.2829,-3.2848,-3.2862,-3.2915,-3.2943,-3.2643,-3.2643,-3.2643,0,0,-3.2867,-3.2831,-3.2853,-3.2846,-3.2826,-3.2857,-3.2733,-3.277,-3.2792,-3.2669,-3.2724,-3.2697,-3.2673,-3.2755,-3.279,-3.2738,-3.2942,-3.2864,-3.288,-3.2882,-3.293,-3.2959,-3.2984,-3.2651,-3.265,-3.2649,0,0,-3.3053,-3.3027,-3.309,-3.3073,-3.3045,-3.2997,-3.3013,-3.2966,-3.2942,-3.2997,-3.2905,-3.2932,-3.2963,-3.2951,-3.2948,-3.3132,-3.3062,-3.3139,-3.3262,-3.3315,-3.3338,-3.3359,-3.3426,-3.3451,-3.3152,-3.3153,-3.3153,0,-3.3172,-3.3213,-3.3132,-3.3175,-3.3176,-3.3065,-3.313,-3.3118,-3.3096,-3.31,-3.3042,-3.3081,-3.3057,-3.3135,-3.3181,-3.3182,-3.3199,-3.3143,-3.3341,-3.3361,-3.3379,-3.3442,-3.3467,-3.3162,-3.3161,-3.316,-3.3159,0,-3.3362,-3.3392,-3.3447,-3.3428,-3.3435,-3.3489,-3.3418,-3.3435,-3.338,-3.334,-3.3399,-3.3366,-3.3371,-3.3386,-3.3332,-3.3458,-3.3427,-3.3357,-3.3256,-3.3419,-3.3476,-3.35,-3.3176,-3.3172,-3.317,-3.3167,0,0,-3.3645,-3.3582,-3.3603,-3.3594,-3.3556,-3.3579,-3.3629,-3.3633,-3.365,-3.364,-3.3681,-3.3711,-3.3647,-3.3645,-3.359,-3.3636,-3.3786,-3.356,-3.3559,-3.3605,-3.3924,-3.3978,-3.4007,-3.3739,-3.3744,-3.3747,-3.3927,0,-3.3821,-3.3901,-3.3831,-3.3926,-3.3954,-3.3851,-3.3895,-3.3878,-3.3842,-3.3862,-3.3823,-3.3846,-3.3759,-3.3757,-3.3799,-3.3759,-3.3849,-3.3745,-3.3779,-3.3781,-3.3788,-3.4037,-3.4093,-3.4264,-3.3949,-3.3952,-3.3955,0,-3.4036,-3.4035,-3.4133,-3.409,-3.4099,-3.414,-3.4139,-3.4159,-3.4139,-3.4109,-3.4109,-3.4041,-3.409,-3.3991,-3.4058,-3.3989,-3.3999,-3.3982,-3.3987,-3.3988,-3.3878,-3.4045,-3.4316,-3.4343,-3.399,-3.3987,-3.3984,0,-3.4234,-3.4257,-3.4319,-3.4315,-3.4266,-3.4298,-3.428,-3.4253,-3.4261,-3.4261,-3.4266,-3.4272,-3.4276,-3.4283,-3.4221,-3.4154,-3.4297,-3.4192,-3.4275,-3.4277,-3.431,-3.4309,-3.4588,-3.4316,-3.4316,-3.4315,-3.4314,0,-3.4438,-3.4502,-3.4408,-3.4446,-3.4516,-3.4436,-3.4508,-3.4479,-3.4458,-3.449,-3.4401,-3.4434,-3.4348,-3.4373,-3.4325,-3.4389,-3.4391,-3.437,-3.4356,-3.4378,-3.4381,-3.4384,-3.4371,-3.4322,-3.432,-3.4319,-3.4318,0,-3.4671,-3.461,-3.4671,-3.4621,-3.461,-3.4664,-3.4622,-3.4656,-3.4615,-3.4657,-3.4663,-3.4599,-3.4624,-3.4562,-3.4577,-3.4544,-3.4637,-3.4604,-3.4644,-3.4634,-3.4722,-3.4715,-3.5013,-3.5048,-3.4754,-3.4756,-3.4759,0,-3.4805,-3.4852,-3.4807,-3.4822,-3.4809,-3.4834,-3.4841,-3.4765,-3.4777,-3.4759,-3.4796,-3.4813,-3.4822,-3.4867,-3.4823,-3.4835,-3.4802,-3.4906,-3.4804,-3.4825,-3.4805,-3.4804,-3.4809,-3.4927,-3.4931,-3.4934,-3.4936,0,-3.505,-3.5018,-3.5031,-3.5036,-3.5048,-3.5048,-3.5041,-3.5059,-3.4978,-3.4996,-3.502,-3.5028,-3.5044,-3.5063,-3.5065,-3.5048,-3.498,-3.4969,-3.4989,-3.5012,-3.5034,-3.5025,-3.4703,-3.4962,-3.496,-3.4958,-3.4956,-3.4955,-3.5238,-3.5276,-3.5251,-3.527,-3.5257,-3.5254,-3.5285,-3.5248,-3.5266,-3.5272,-3.5227,-3.5261,-3.5242,-3.5238,-3.5228,-3.5255,-3.5208,-3.5237,-3.5245,-3.5253,-3.5269,-3.503,-3.5255,-3.5255,-3.5254,-3.5253,-3.5252,0,-3.5479,-3.5458,-3.5477,-3.5471,-3.5487,-3.5421,-3.5411,-3.5429,-3.546,-3.5447,-3.5459,-3.5488,-3.5506,-3.5465,-3.5477,-3.5507,-3.5477,-3.5513,-3.5511,-3.5508,-3.5309,-3.5291,-3.5538,-3.5538,-3.5538,-3.5538,-3.5538,-3.5538,-3.5606,-3.5668,-3.5634,-3.5689,-3.5668,-3.57,-3.5701,-3.5698,-3.5688,-3.5724,-3.5738,-3.5711,-3.5687,-3.5698,-3.5713,-3.57,-3.571,-3.5758,-3.5735,-3.555,-3.5522,-3.5495,-3.5478,-3.576,-3.5761,-3.5932,-3.5933,-3.5935]},{"header":{"parameterUnit":"m.s-1","parameterCategory":1,"la1":30.2991,"la2":30.254,"lo1":-89.0895,"lo2":-89.0444,"dy":0.0017,"dx":0.0017,"nx":28,"ny":28,"refTime":"2025-04-15T21:00:00:Z","depth":0,"parameterNumber":3,"parameterNumberName":"V-component_of_WINDS"},"data":[0,0,0,0,0,0,0,0,0,0,0,0,0,0,0,0,0,0,0,0,0,0,0,0,0,0,0,0,0,0,0,0,0,0,0,0,0,0,0,0,0,0,0,0,0,0,0,0,0,0,0,0,0,0,0,0,0,0,0.9699,0.9699,0,0.966,0.966,0.9659,0.9667,0.9668,0.9669,0.967,0.9625,0.9624,0.9622,0,0,0,0,0,0,0,0,0,0,0,0,0,0.9778,0.9776,0.9699,0.9699,0.9698,0.966,0.966,0.9659,0.9667,0.9668,0.9669,0.967,0.9626,0.9624,0.9622,0,0,0,0,0,0,0,0,0,0,0,0,0,0.9742,0.9776,0.9699,0.9698,0.9697,0.966,0.966,0.9659,0.9667,0.9668,0.9669,0.967,0.9627,0.9624,0.9621,0.9582,0,0,0.9613,0.9611,0,0,0,0,0,0,0,0,0.9744,0.9739,0.9699,0.9698,0.9697,0.967,0.9671,0.9633,0.9667,0.9678,0.967,0.9671,0.9639,0.9635,0.9625,0.958,0.9578,0.9612,0.9611,0.961,0.9609,0,0,0,0,0,0,0,0.9746,0.974,0.9684,0.9698,0.9697,0.9698,0.9694,0.9664,0.9653,0.9678,0.9678,0.9674,0.9639,0.9628,0.9624,0.9577,0.9612,0.961,0.9608,0.9607,0.9498,0.9497,0,0,0,0,0,0,0.975,0.9742,0.9685,0.9682,0.9724,0.9696,0.9692,0.9677,0.9653,0.9651,0.9673,0.9674,0.9632,0.9628,0.9623,0.9575,0.961,0.9607,0.9605,0.9499,0.9498,0.9496,0,0,0,0,0,0,0.9751,0.9744,0.9686,0.9713,0.9705,0.9693,0.9678,0.9676,0.9665,0.965,0.9647,0.9664,0.9633,0.9627,0.9592,0.9574,0.9606,0.9603,0.9501,0.9499,0.9497,0.9479,0,0,0,0,0,0,0.9754,0.9745,0.973,0.9712,0.9704,0.9657,0.9676,0.9675,0.9661,0.9663,0.9641,0.9638,0.9633,0.9597,0.959,0.957,0.9601,0.9502,0.95,0.9498,0.9481,0.9477,0.9473,0,0,0,0,0,0.9756,0.9726,0.973,0.9723,0.9686,0.9656,0.9651,0.9648,0.966,0.9644,0.9635,0.9639,0.9577,0.9593,0.9585,0.9565,0.9503,0.95,0.9498,0.9483,0.9478,0.9473,0,0,0,0,0,0,0.974,0.9723,0.9727,0.9691,0.9675,0.9658,0.9638,0.9642,0.9622,0.9624,0.9619,0.9614,0.9579,0.9569,0.9586,0.9526,0.9542,0.9537,0.9533,0.9528,0.9524,0.9526,0.9599,0,0,0,0,0,0.9733,0.9712,0.9698,0.9666,0.9659,0.965,0.9637,0.9636,0.9619,0.9612,0.9599,0.9582,0.9559,0.9543,0.9521,0.9481,0.9476,0.9463,0.9459,0.9456,0.9451,0.9429,0.9423,0.9487,0.9487,0.9487,0,0,0.9716,0.9705,0.9691,0.9663,0.9651,0.9628,0.9644,0.9619,0.9602,0.9608,0.9575,0.9565,0.9545,0.9508,0.9491,0.9498,0.9433,0.9452,0.945,0.9447,0.9426,0.942,0.9414,0.9485,0.9486,0.9486,0,0,0.9674,0.9664,0.9637,0.9625,0.9607,0.9602,0.9596,0.9578,0.9573,0.954,0.9544,0.9523,0.9483,0.9469,0.9456,0.9412,0.9414,0.9405,0.9382,0.9361,0.9356,0.9351,0.9334,0.9328,0.9401,0.9401,0.94,0,0.9655,0.9622,0.9622,0.9597,0.9584,0.9591,0.9563,0.9551,0.9526,0.9517,0.9526,0.9477,0.9464,0.9423,0.9413,0.9403,0.9394,0.9406,0.9357,0.9352,0.9348,0.9331,0.9325,0.9399,0.9399,0.94,0.94,0,0.96,0.9577,0.9557,0.9534,0.952,0.9493,0.9488,0.9473,0.9474,0.9468,0.9434,0.942,0.9395,0.9385,0.9385,0.9345,0.935,0.9358,0.9374,0.9341,0.9325,0.9319,0.9398,0.9398,0.9398,0.9399,0,0,0.9544,0.9524,0.9516,0.9506,0.9488,0.947,0.9444,0.9421,0.9408,0.9391,0.9369,0.9336,0.9344,0.933,0.9328,0.931,0.9274,0.932,0.932,0.9311,0.9228,0.9221,0.9214,0.9277,0.9276,0.9275,0.9229,0,0.9499,0.9454,0.9454,0.9412,0.9391,0.9398,0.9376,0.9361,0.9355,0.9336,0.9329,0.9305,0.9318,0.931,0.9292,0.9282,0.9257,0.9286,0.9254,0.9253,0.9257,0.9206,0.9197,0.9155,0.9223,0.9222,0.9222,0,0.944,0.9424,0.938,0.9366,0.9357,0.9337,0.9316,0.9298,0.9282,0.9279,0.9265,0.9266,0.9239,0.9258,0.9219,0.9239,0.9227,0.922,0.9219,0.9214,0.9234,0.9198,0.9141,0.9134,0.9212,0.9213,0.9214,0,0.9402,0.9369,0.9339,0.933,0.9314,0.9299,0.9291,0.9277,0.9264,0.9246,0.9237,0.9216,0.9203,0.9187,0.9182,0.9197,0.9144,0.9162,0.9139,0.9139,0.9126,0.9126,0.9064,0.9121,0.9121,0.9121,0.9121,0,0.9351,0.9324,0.9322,0.9303,0.9273,0.9273,0.9243,0.9236,0.9224,0.9203,0.9208,0.9188,0.9185,0.9164,0.9161,0.913,0.9124,0.912,0.9119,0.9118,0.9119,0.9108,0.9111,0.9119,0.912,0.912,0.912,0,0.9303,0.93,0.9268,0.9256,0.9252,0.923,0.9219,0.92,0.9196,0.917,0.9164,0.9156,0.9133,0.9128,0.9099,0.9097,0.9059,0.9062,0.9064,0.9064,0.9041,0.9042,0.8968,0.8958,0.9023,0.9022,0.9022,0,0.9269,0.9249,0.9235,0.9223,0.9214,0.9194,0.9181,0.9181,0.9167,0.9149,0.9132,0.911,0.9091,0.9053,0.9044,0.9022,0.9023,0.8999,0.9019,0.902,0.9021,0.9021,0.9019,0.8994,0.8993,0.8993,0.8992,0,0.921,0.921,0.9192,0.9174,0.9159,0.9144,0.913,0.9119,0.9117,0.9101,0.9078,0.9064,0.9036,0.9012,0.8991,0.8982,0.8986,0.8987,0.898,0.8978,0.898,0.8977,0.9051,0.8987,0.8988,0.8988,0.8988,0.8989,0.9167,0.9149,0.9137,0.9117,0.9107,0.9094,0.9076,0.9071,0.9052,0.903,0.9031,0.9005,0.8991,0.8963,0.8953,0.8932,0.8939,0.893,0.8927,0.8924,0.8921,0.8985,0.8928,0.8928,0.8928,0.8928,0.8929,0,0.9106,0.91,0.9081,0.9062,0.9046,0.9055,0.904,0.9026,0.9003,0.8991,0.8973,0.8946,0.8925,0.8915,0.8893,0.8878,0.888,0.8873,0.8872,0.887,0.8917,0.8924,0.8872,0.8872,0.8872,0.8872,0.8872,0.8872,0.9073,0.9043,0.9043,0.9008,0.9001,0.8977,0.8968,0.8956,0.8946,0.8916,0.8899,0.8894,0.8882,0.886,0.884,0.8838,0.8829,0.882,0.8818,0.8861,0.8867,0.8872,0.8879,0.8818,0.8818,0.8774,0.8773,0.8773]}]]